Regional Weather Roundup
Issued by NWS Sioux Falls, SD

Home | Current Version | Previous Version | Graphics & Text | Print | Product List | Glossary On
Versions: 1 2 3 4 5 6 7 8 9 10 11 12 13 14 15 16 17 18 19 20 21 22 23 24 25 26 27 28 29 30 31 32 33 34 35 36 37 38 39 40 41 42 43 44 45 46 47 48 49 50
000
ASUS43 KFSD 221310
RWRFSD

WEATHER ROUNDUP FOR SE SOUTH DAKOTA/SW MINNESOTA/NW IOWA
NATIONAL WEATHER SERVICE SIOUX FALLS SD
800 AM CDT TUE JUL 22 2014

NOTE: "FAIR" INDICATES FEW OR NO CLOUDS BELOW 12,000 FEET WITH NO
SIGNIFICANT WEATHER AND OR OBSTRUCTIONS TO VISIBILITY.


SDZ038>040-050-052>070-221400-
SOUTHEAST SOUTH DAKOTA

CITY           SKY/WX    TMP DP  RH WIND       PRES   REMARKS
CHAMBERLAIN    PTSUNNY   66  64  92 NW8       30.12R
HURON          MOSUNNY   67  63  87 N15       30.07R
MADISON        FAIR      68  68 100 NE8G18    30.02R
MITCHELL       PTSUNNY   69  66  90 W16G25    30.06R
SIOUX FALLS    CLOUDY    71  65  81 N8        30.00R
WINNER         FAIR      68  64  87 N8        30.11F
YANKTON        PTSUNNY   72  63  73 CALM      29.98R
$$

MNZ071-072-080-081-089-090-097-098-221400-
SOUTHWEST MINNESOTA

CITY           SKY/WX    TMP DP  RH WIND       PRES   REMARKS
FAIRMONT       MOSUNNY   73  63  68 NW14      30.01R
LUVERNE        PTSUNNY   70  63  78 NE5       29.96F
MARSHALL       CLOUDY    68  63  83 N10G24    30.00S
MONTEVIDEO     PTSUNNY   70  64  83 N13       30.02S
PIPESTONE      CLOUDY    68  63  83 NE10      30.00R
REDWOOD FALLS  CLOUDY    69  64  84 N17G26    29.93F
TRACY          CLOUDY    69  64  86 N10G17    29.99F
WINDOM         PTSUNNY   70  64  83 N5        29.99F
WORTHINGTON    PTSUNNY   70  63  78 N6        30.01F
$$

IAZ001>003-012>014-020>022-031-032-NEZ013-014-SDZ071-221400-
NORTHWEST IOWA

CITY           SKY/WX    TMP DP  RH WIND       PRES   REMARKS
CHEROKEE       SUNNY     75  67  76 N14       29.98F
DENISON        PTSUNNY   79  75  89 N8        29.97R
ESTHERVILLE    MOSUNNY   71  65  81 N15       30.01F
LE MARS        SUNNY     75  64  69 NE13G21   29.96F
ORANGE CITY    MOSUNNY   73  63  68 NE8       29.98F
SHELDON        SUNNY     72  64  78 NE9G16    29.97F
SIOUX CITY     MOSUNNY   80  63  55 NE10      29.95F
SPENCER        MOSUNNY   73  65  75 N15       30.01S
STORM LAKE     SUNNY     75  68  78 N14G22    30.01R
$$

ABBREVIATIONS USED IN REMARKS
   TC - TEMPERATURE IN CELSIUS
  WCI - WIND CHILL INDEX
   HX - HEAT INDEX
  VSB - VISIBILITY




USA.gov is the U.S. government's official web portal to all federal, state and local government web resources and services.